Date String (YYYY-MM-DD hh:mm:ss) UTC,Instrument flags,Ambient pressure (hPa),Sample flow (lpm),Bypass flow (lpm),Sample temperature (°C),Ambient temperature (°C),ASC tube jacket temperature (°C),LED temperature (°C),Box temperature (°C),Sample RH (%),Span deviation,Mass concentration (μg/m³),Mass concentration (μg/m³),Mass concentration (μg/m³)
DateTimeUTC,F1_M11,P_M11,Q1_M11,Q2_M11,T1_M11,T2_M11,T3_M11,T4_M11,T5_M11,U1_M11,ZSPAN_M11,X0_M11,X2_M11,X1_M11
2021-12-23 23:00:00,,0814.6,5.00,0.00,25.1,24.1,00.0,34.1,26.7,20.5,0000.0,0000.68,0000.21,0000.14
2021-12-23 23:01:00,,0814.7,5.00,0.00,25.1,24.1,00.0,34.1,26.8,20.5,0000.0,0000.37,0000.22,0000.14
2021-12-23 23:02:00,,0814.6,5.02,0.00,25.1,24.1,00.0,34.1,26.8,20.6,0000.0,0000.36,0000.21,0000.15
2021-12-23 23:03:00,,0814.6,4.99,0.00,25.1,24.1,00.0,34.1,26.8,20.5,0000.0,0000.30,0000.20,0000.15
2021-12-23 23:04:00,,0814.5,5.01,0.00,25.1,24.2,00.0,34.1,26.7,20.5,0000.0,0000.27,0000.18,0000.15
2021-12-23 23:05:00,,0814.5,4.98,0.00,25.0,24.1,00.0,34.1,26.7,20.4,0000.0,0000.30,0000.20,0000.15
2021-12-23 23:06:00,,0814.6,5.01,0.00,25.0,24.1,00.0,34.1,26.7,20.3,0000.0,0000.31,0000.20,0000.16
2021-12-23 23:07:00,,0814.4,4.99,0.00,25.0,24.1,00.0,34.1,26.7,20.3,0000.0,0000.31,0000.20,0000.16
2021-12-23 23:08:00,,0814.4,5.01,0.00,25.0,24.1,00.0,34.1,26.7,20.0,0000.0,0000.35,0000.21,0000.16
2021-12-23 23:09:00,,0814.5,5.01,0.00,25.0,24.1,00.0,34.1,26.7,20.0,0000.0,0000.34,0000.21,0000.16
2021-12-23 23:10:00,,0814.2,5.00,0.00,25.0,24.1,00.0,34.1,26.7,20.0,0000.0,0000.34,0000.21,0000.15
2021-12-23 23:11:00,,0814.3,5.00,0.00,25.0,24.1,00.0,34.1,26.6,19.9,0000.0,0000.35,0000.21,0000.16
2021-12-23 23:12:00,,0814.2,5.00,0.00,25.0,24.1,00.0,34.0,26.6,20.0,0000.0,0000.37,0000.22,0000.16
2021-12-23 23:13:00,,0814.0,4.99,0.00,25.0,24.0,00.0,34.0,26.5,20.0,0000.0,0000.37,0000.22,0000.15
2021-12-23 23:14:00,,0814.1,5.00,0.00,25.0,24.0,00.0,34.0,26.6,20.0,0000.0,0000.37,0000.22,0000.15
2021-12-23 23:15:00,,0814.2,5.01,0.00,25.0,24.0,00.0,34.0,26.6,20.0,0000.0,0000.52,0000.23,0000.14
2021-12-23 23:16:00,,0814.0,5.00,0.00,25.0,23.9,00.0,34.0,26.6,20.0,0000.0,0000.51,0000.23,0000.14
2021-12-23 23:17:00,,0813.9,4.99,0.00,25.0,24.0,00.0,34.0,26.6,19.9,0000.0,0000.47,0000.21,0000.14
2021-12-23 23:18:00,,0814.2,5.00,0.00,25.0,24.0,00.0,34.0,26.6,19.9,0000.0,0000.46,0000.21,0000.14
2021-12-23 23:19:00,,0813.8,5.00,0.00,25.0,24.0,00.0,34.0,26.7,19.9,0000.0,0000.45,0000.20,0000.13
2021-12-23 23:20:00,,0813.8,5.01,0.00,25.0,24.0,00.0,34.0,26.7,19.9,0000.0,0000.47,0000.22,0000.14
2021-12-23 23:21:00,,0813.8,4.99,0.00,25.0,24.0,00.0,34.0,26.7,19.9,0000.0,0000.48,0000.22,0000.14
2021-12-23 23:22:00,,0813.9,5.01,0.00,25.0,24.0,00.0,34.0,26.6,19.9,0000.0,0000.50,0000.24,0000.14
2021-12-23 23:23:00,,0813.9,5.00,0.00,24.9,24.0,00.0,34.0,26.6,19.8,0000.0,0000.48,0000.23,0000.14
2021-12-23 23:24:00,,0814.0,4.99,0.00,24.9,24.0,00.0,34.0,26.6,19.8,0000.0,0000.48,0000.23,0000.14
2021-12-23 23:25:00,,0814.0,5.00,0.00,24.9,24.0,00.0,34.0,26.5,19.9,0000.0,0000.51,0000.24,0000.14
2021-12-23 23:26:00,,0814.1,4.99,0.00,24.9,24.0,00.0,34.0,26.5,19.8,0000.0,0000.39,0000.22,0000.14
2021-12-23 23:27:00,,0814.0,5.01,0.00,24.9,24.0,00.0,34.0,26.5,19.7,0000.0,0000.31,0000.21,0000.14
2021-12-23 23:28:00,,0814.1,5.01,0.00,24.9,23.9,00.0,34.0,26.5,19.6,0000.0,0000.31,0000.20,0000.14
2021-12-23 23:29:00,,0814.3,5.00,0.00,24.9,23.9,00.0,34.0,26.5,19.7,0000.0,0000.32,0000.21,0000.14
2021-12-23 23:30:00,,0814.3,5.00,0.00,24.9,24.0,00.0,34.0,26.6,19.4,0000.0,0000.32,0000.21,0000.14
2021-12-23 23:31:00,,0814.4,5.01,0.00,24.9,24.0,00.0,34.0,26.5,18.6,0000.0,0000.29,0000.19,0000.14
2021-12-23 23:32:00,,0814.5,5.00,0.00,24.9,24.0,00.0,34.0,26.4,18.4,0000.0,0000.41,0000.24,0000.13
2021-12-23 23:33:00,,0814.6,4.99,0.00,24.8,23.9,00.0,33.9,26.4,18.5,0000.0,0000.44,0000.24,0000.12
2021-12-23 23:34:00,,0814.8,4.99,0.00,24.8,23.9,00.0,33.9,26.4,18.4,0000.0,0000.44,0000.23,0000.11
2021-12-23 23:35:00,,0814.8,5.01,0.00,24.8,23.9,00.0,33.9,26.5,18.6,0000.0,0000.48,0000.26,0000.10
2021-12-23 23:36:00,,0814.4,5.00,0.00,24.8,23.9,00.0,33.9,26.4,18.6,0000.0,0000.43,0000.24,0000.09
2021-12-23 23:37:00,,0814.4,5.01,0.00,24.8,23.9,00.0,33.9,26.4,18.6,0000.0,0000.44,0000.24,0000.08
2021-12-23 23:38:00,,0814.4,5.00,0.00,24.8,23.9,00.0,33.9,26.4,18.6,0000.0,0000.51,0000.25,0000.08
2021-12-23 23:39:00,,0814.4,4.99,0.00,24.7,23.9,00.0,33.9,26.4,18.6,0000.0,0000.54,0000.26,0000.07
2021-12-23 23:40:00,,0814.4,5.00,0.00,24.7,23.9,00.0,33.9,26.4,18.8,0000.0,0000.58,0000.26,0000.06
2021-12-23 23:41:00,,0814.4,5.01,0.00,24.7,23.9,00.0,33.9,26.4,18.9,0000.0,0000.58,0000.25,0000.05
2021-12-23 23:42:00,,0814.4,5.00,0.00,24.7,23.8,00.0,33.8,26.4,18.8,0000.0,0000.57,0000.24,0000.05
2021-12-23 23:43:00,,0814.4,4.99,0.00,24.7,23.8,00.0,33.8,26.3,18.7,0000.0,0000.49,0000.20,0000.05
2021-12-23 23:44:00,,0814.4,5.01,0.00,24.6,23.7,00.0,33.8,26.3,18.8,0000.0,0000.43,0000.18,0000.05
2021-12-23 23:45:00,,0814.3,5.00,0.00,24.6,23.7,00.0,33.8,26.2,19.1,0000.0,0000.41,0000.16,0000.05
2021-12-23 23:46:00,,0814.3,4.99,0.00,24.6,23.7,00.0,33.8,26.2,19.1,0000.0,0000.35,0000.13,0000.05
2021-12-23 23:47:00,,0814.4,5.02,0.00,24.6,23.7,00.0,33.8,26.2,19.3,0000.0,0000.35,0000.12,0000.05
2021-12-23 23:48:00,,0814.4,4.99,0.00,24.6,23.7,00.0,33.8,26.2,19.6,0000.0,0000.34,0000.12,0000.05
2021-12-23 23:49:00,,0814.3,4.99,0.00,24.5,23.6,00.0,33.7,26.1,19.8,0000.0,0000.27,0000.10,0000.05
2021-12-23 23:50:00,,0814.4,4.99,0.00,24.5,23.6,00.0,33.7,26.1,19.9,0000.0,0000.24,0000.09,0000.05
2021-12-23 23:51:00,,0814.4,5.01,0.00,24.5,23.6,00.0,33.7,26.1,19.9,0000.0,0000.17,0000.08,0000.05
2021-12-23 23:52:00,,0814.5,5.00,0.00,24.4,23.6,00.0,33.7,26.0,19.8,0000.0,0000.20,0000.09,0000.04
2021-12-23 23:53:00,,0814.5,4.99,0.00,24.4,23.5,00.0,33.6,26.1,20.0,0000.0,0000.20,0000.08,0000.04
2021-12-23 23:54:00,,0814.6,5.00,0.00,24.4,23.5,00.0,33.6,26.0,20.0,0000.0,0000.25,0000.08,0000.04
2021-12-23 23:55:00,,0814.5,4.99,0.00,24.4,23.6,00.0,33.6,26.0,19.9,0000.0,0000.35,0000.10,0000.04
2021-12-23 23:56:00,,0814.6,5.01,0.00,24.4,23.6,00.0,33.6,26.0,20.3,0000.0,0000.36,0000.10,0000.04
2021-12-23 23:57:00,,0814.9,5.01,0.00,24.4,23.5,00.0,33.6,26.0,20.6,0000.0,0000.39,0000.13,0000.05
2021-12-23 23:58:00,,0814.9,4.99,0.00,24.4,23.5,00.0,33.6,26.0,20.7,0000.0,0000.46,0000.15,0000.05
2021-12-23 23:59:00,,0814.6,5.00,0.00,24.4,23.5,00.0,33.5,26.0,20.7,0000.0,0000.66,0000.19,0000.05
